Weather History for Clinton, OK

Change the Weather History Date:

Thursday, May 15, 2014

  Actual Average (KCSM) Record (KCSM)
Temperature  
Mean Temperature 54 °F -  
Max Temperature 71 °F 79 °F 93 °F (1999)
Min Temperature 37 °F 56 °F 41 °F (2004)
Degree Days  
Heating Degree Days 11    
Growing Degree Days 4 (Base 50)    
Moisture  
Dew Point 28 °F    
Average Humidity 36    
Maximum Humidity 65    
Minimum Humidity 19    
Precipitation  
Precipitation 0.00 in - - ()
Sea Level Pressure  
Sea Level Pressure 30.19 in    
Wind  
Wind Speed 5 mph (North)    
Max Wind Speed 16 mph    
Max Gust Speed 24 mph    
Visibility 10 miles    
Events      
Averages and records for this station are not official NWS values.
T = Trace of Precipitation, MM = Missing Value Source: NWS Daily Summary

Daily Weather History Graph

Daily Weather History Graph

Search for Another Location

Airport:

Trip Planner

Search our weather history database for the weather conditions in past years. The results will help you decide how hot, cold, wet, or windy it might be!

Date:

Astronomy

May. 15, 2014 Rise Set
Actual Time 6:30 AM CDT 8:33 PM CDT
Civil Twilight 6:02 AM CDT 9:02 PM CDT
Nautical Twilight 5:28 AM CDT 9:36 PM CDT
Astronomical Twilight 4:51 AM CDT 10:13 PM CDT
Moon 9:43 PM CDT (5/15) 7:18 AM CDT (5/15)
Length of Visible Light 14h 59m
Length of Day
14h 02m
Full, 99% of the Moon is Illuminated
May 15
Full
May 21
Last Quarter
May 28
New
Jun 5
First Quarter
Jun 12
Full

Hourly Weather History & Observations

Time (CDT) Temp. Windchill Dew Point Humidity Pressure Visibility Wind Dir Wind Speed Gust Speed Precip Events Conditions
12:15 AM 50.0 °F - 21.2 °F 32% 30.23 in 10.0 mi SE 5.8 mph - N/A   Mostly Cloudy
12:35 AM 46.4 °F 45.2 °F 23.0 °F 40% 30.23 in 10.0 mi South 3.5 mph - N/A   Mostly Cloudy
12:55 AM 50.0 °F - 21.2 °F 32% 30.22 in 10.0 mi Calm Calm - N/A   Mostly Cloudy
1:15 AM 46.4 °F - 21.2 °F 37% 30.22 in 10.0 mi Calm Calm - N/A   Mostly Cloudy
1:35 AM 46.4 °F - 21.2 °F 37% 30.22 in 10.0 mi Calm Calm - N/A   Mostly Cloudy
1:55 AM 46.4 °F - 21.2 °F 37% 30.22 in 10.0 mi Calm Calm - N/A   Scattered Clouds
2:15 AM 42.8 °F 40.1 °F 23.0 °F 46% 30.22 in 10.0 mi WNW 4.6 mph - N/A   Scattered Clouds
2:35 AM 41.0 °F - 23.0 °F 49% 30.22 in 10.0 mi Calm Calm - N/A   Scattered Clouds
2:55 AM 44.6 °F - 23.0 °F 43% 30.22 in 10.0 mi Calm Calm - N/A   Clear
3:15 AM 39.2 °F 35.0 °F 24.8 °F 56% 30.22 in 10.0 mi North 5.8 mph - N/A   Clear
3:35 AM 41.0 °F - 23.0 °F 49% 30.21 in 10.0 mi Calm Calm - N/A   Clear
3:55 AM 44.6 °F 43.1 °F 23.0 °F 43% 30.21 in 10.0 mi West 3.5 mph - N/A   Clear
4:15 AM 41.0 °F 38.0 °F 23.0 °F 49% 30.21 in 10.0 mi West 4.6 mph - N/A   Clear
4:35 AM 42.8 °F 39.3 °F 24.8 °F 49% 30.21 in 10.0 mi West 5.8 mph - N/A   Scattered Clouds
4:55 AM 42.8 °F 38.0 °F 24.8 °F 49% 30.22 in 10.0 mi WNW 8.1 mph - N/A   Mostly Cloudy
5:15 AM 41.0 °F 37.1 °F 26.6 °F 57% 30.21 in 10.0 mi WNW 5.8 mph - N/A   Scattered Clouds
5:35 AM 41.0 °F - 26.6 °F 57% 30.21 in 10.0 mi Calm Calm - N/A   Mostly Cloudy
5:55 AM 41.0 °F - 26.6 °F 57% 30.21 in 10.0 mi Calm Calm - N/A   Mostly Cloudy
6:15 AM 41.0 °F 39.0 °F 26.6 °F 57% 30.21 in 10.0 mi NNE 3.5 mph - N/A   Scattered Clouds
6:35 AM 37.4 °F - 26.6 °F 65% 30.21 in 10.0 mi Calm Calm - N/A   Scattered Clouds
6:55 AM 39.2 °F - 26.6 °F 61% 30.21 in 10.0 mi Calm Calm - N/A   Scattered Clouds
7:15 AM 41.0 °F 38.0 °F 28.4 °F 61% 30.22 in 10.0 mi West 4.6 mph - N/A   Scattered Clouds
7:35 AM 41.0 °F 37.1 °F 28.4 °F 61% 30.22 in 10.0 mi NW 5.8 mph - N/A   Clear
7:55 AM 44.6 °F - 28.4 °F 53% 30.23 in 10.0 mi Calm Calm - N/A   Clear
8:15 AM 46.4 °F 44.3 °F 28.4 °F 50% 30.24 in 10.0 mi WNW 4.6 mph - N/A   Clear
8:35 AM 51.8 °F - 28.4 °F 41% 30.24 in 10.0 mi WNW 5.8 mph - N/A   Clear
8:55 AM 53.6 °F - 26.6 °F 35% 30.24 in 10.0 mi WNW 4.6 mph - N/A   Clear
9:15 AM 55.4 °F - 28.4 °F 36% 30.25 in 10.0 mi NW 5.8 mph - N/A   Clear
9:35 AM 59.0 °F - 28.4 °F 31% 30.24 in 10.0 mi NNW 3.5 mph - N/A   Clear
9:55 AM 60.8 °F - 28.4 °F 29% 30.24 in 10.0 mi Calm Calm - N/A   Clear
10:15 AM 62.6 °F - 28.4 °F 27% 30.23 in 10.0 mi NNW 5.8 mph - N/A   Clear
10:35 AM 64.4 °F - 28.4 °F 26% 30.22 in 10.0 mi North 8.1 mph - N/A   Clear
10:55 AM 66.2 °F - 28.4 °F 24% 30.22 in 10.0 mi NNW 9.2 mph - N/A   Clear
11:15 AM 66.2 °F - 28.4 °F 24% 30.22 in 10.0 mi NW 8.1 mph - N/A   Clear
11:35 AM 68.0 °F - 26.6 °F 21% 30.21 in 10.0 mi North 9.2 mph 16.1 mph N/A   Scattered Clouds
11:55 AM 68.0 °F - 26.6 °F 21% 30.22 in 10.0 mi NNW 3.5 mph - N/A   Mostly Cloudy
12:35 PM 68.0 °F - 26.6 °F 21% 30.21 in 10.0 mi NW 5.8 mph - N/A   Mostly Cloudy
12:55 PM 68.0 °F - 26.6 °F 21% 30.21 in 10.0 mi Calm Calm - N/A   Overcast
1:15 PM 68.0 °F - 26.6 °F 21% 30.21 in 10.0 mi NNW 8.1 mph - N/A   Overcast
2:15 PM 68.0 °F - 26.6 °F 21% 30.21 in 10.0 mi NW 10.4 mph - N/A   Overcast
2:55 PM 68.0 °F - 28.4 °F 23% 30.19 in 10.0 mi NNE 9.2 mph - N/A   Scattered Clouds
3:15 PM 68.0 °F - 28.4 °F 23% 30.18 in 10.0 mi North 11.5 mph - N/A   Mostly Cloudy
3:35 PM 68.0 °F - 26.6 °F 21% 30.18 in 10.0 mi NNW 10.4 mph - N/A   Mostly Cloudy
3:55 PM 69.8 °F - 28.4 °F 21% 30.17 in 10.0 mi NW 12.7 mph 16.1 mph N/A   Mostly Cloudy
4:15 PM 69.8 °F - 26.6 °F 20% 30.16 in 10.0 mi North 16.1 mph 20.7 mph N/A   Scattered Clouds
4:35 PM 71.6 °F - 26.6 °F 19% 30.15 in 10.0 mi North 13.8 mph 20.7 mph N/A   Scattered Clouds
4:55 PM 69.8 °F - 28.4 °F 21% 30.14 in 10.0 mi North 12.7 mph 24.2 mph N/A   Scattered Clouds
5:15 PM 69.8 °F - 28.4 °F 21% 30.14 in 10.0 mi North 11.5 mph 20.7 mph N/A   Scattered Clouds
5:35 PM 69.8 °F - 28.4 °F 21% 30.13 in 10.0 mi NNW 10.4 mph - N/A   Scattered Clouds
5:55 PM 71.6 °F - 26.6 °F 19% 30.12 in 10.0 mi North 9.2 mph - N/A   Scattered Clouds
6:15 PM 71.6 °F - 26.6 °F 19% 30.12 in 10.0 mi NNW 10.4 mph - N/A   Scattered Clouds
6:35 PM 69.8 °F - 28.4 °F 21% 30.12 in 10.0 mi North 9.2 mph - N/A   Scattered Clouds
6:55 PM 69.8 °F - 28.4 °F 21% 30.11 in 10.0 mi North 9.2 mph - N/A   Scattered Clouds
7:15 PM 69.8 °F - 28.4 °F 21% 30.11 in 10.0 mi North 10.4 mph - N/A   Scattered Clouds
7:35 PM 69.8 °F - 28.4 °F 21% 30.11 in 10.0 mi North 12.7 mph - N/A   Scattered Clouds
7:55 PM 68.0 °F - 28.4 °F 23% 30.12 in 10.0 mi NNE 9.2 mph - N/A   Scattered Clouds
8:15 PM 64.4 °F - 30.2 °F 28% 30.12 in 10.0 mi ENE 6.9 mph - N/A   Clear
8:35 PM 62.6 °F - 32.0 °F 32% 30.12 in 10.0 mi NE 9.2 mph - N/A   Clear
8:55 PM 62.6 °F - 32.0 °F 32% 30.12 in 10.0 mi ENE 8.1 mph - N/A   Clear
9:15 PM 59.0 °F - 32.0 °F 36% 30.13 in 10.0 mi ENE 6.9 mph - N/A   Scattered Clouds
9:35 PM 59.0 °F - 33.8 °F 39% 30.13 in 10.0 mi ENE 8.1 mph - N/A   Mostly Cloudy
9:55 PM 57.2 °F - 33.8 °F 41% 30.14 in 10.0 mi ENE 8.1 mph - N/A   Mostly Cloudy
10:15 PM 55.4 °F - 33.8 °F 44% 30.15 in 10.0 mi ENE 8.1 mph - N/A   Mostly Cloudy
10:35 PM 55.4 °F - 33.8 °F 44% 30.16 in 10.0 mi ENE 6.9 mph - N/A   Mostly Cloudy
10:55 PM 55.4 °F - 33.8 °F 44% 30.16 in 10.0 mi East 5.8 mph - N/A   Mostly Cloudy
11:15 PM 53.6 °F - 33.8 °F 47% 30.16 in 10.0 mi East 5.8 mph - N/A   Mostly Cloudy
11:35 PM 53.6 °F - 35.6 °F 51% 30.17 in 10.0 mi East 4.6 mph - N/A   Overcast
11:55 PM 51.8 °F - 33.8 °F 50% 30.17 in 10.0 mi ESE 4.6 mph - N/A   Mostly Cloudy